Location: Unspecified
(0.0000°N, 0.0000°E)
Time: 06:31:14
(UTC+00:00)

Explorer 11/Cluster Stage 4 - Pass Details

Date: 28 November 2019
Orbit: 467 x 1259 km, 28.8° (Epoch: 11 December)

Event Time Altitude Azimuth Distance (km) Brightness Sun altitude
Rises 23:40:34 0° 296° (WNW) 3,496 - -68.5°
Reaches altitude 10° 23:42:58 10° 293° (WNW) 2,669 - -68.6°
Maximum altitude 23:49:35 71° 210° (SSW) 1,148 - -68.6°
Drops below altitude 10° 23:57:31 10° 127° (SE) 3,158 - -68.5°
Sets 00:00:34 0° 125° (SE) 4,172 - -68.4°
